| time (UTC) | temp F | wind direction | speed MPH | gust MPH | rain 1hr in | rain 24hr in | rain mn in | humidity % | barometer mb |
| 20260503014548 | 65 | 213 | 1.0 | 3.0 | 0.00 | 0.00 | 0.00 | 12 | 1012.2 |
| 20260503014049 | 65 | 202 | 1.0 | 4.0 | 0.00 | 0.00 | 0.00 | 12 | 1012.2 |
| 20260503013545 | 65 | 209 | 2.0 | 8.0 | 0.00 | 0.00 | 0.00 | 12 | 1012.2 |
| 20260503013045 | 66 | 360 | 2.0 | 8.0 | 0.00 | 0.00 | 0.00 | 12 | 1012.1 |
| 20260503012545 | 66 | 210 | 3.0 | 6.0 | 0.00 | 0.00 | 0.00 | 11 | 1012.1 |
| 20260503012045 | 67 | 192 | 1.0 | 5.0 | 0.00 | 0.00 | 0.00 | 12 | 1012.0 |
| 20260503011558 | 68 | 200 | 2.0 | 6.0 | 0.00 | 0.00 | 0.00 | 11 | 1012.1 |
| 20260503011048 | 68 | 208 | 3.0 | 6.0 | 0.00 | 0.00 | 0.00 | 11 | 1012.0 |
| 20260503010544 | 68 | 169 | 3.0 | 8.0 | 0.00 | 0.00 | 0.00 | 10 | 1011.9 |
| 20260503010052 | 68 | 360 | 4.0 | 9.0 | 0.00 | 0.00 | 0.00 | 10 | 1011.9 |
| 20260503005547 | 69 | 157 | 6.0 | 9.0 | 0.00 | 0.00 | 0.00 | 10 | 1011.9 |
| 20260503005044 | 69 | 360 | 3.0 | 8.0 | 0.00 | 0.00 | 0.00 | 10 | 1012.0 |
| 20260503004543 | 69 | 360 | 4.0 | 8.0 | 0.00 | 0.00 | 0.00 | 10 | 1012.1 |
| 20260503004043 | 69 | 360 | 4.0 | 6.0 | 0.00 | 0.00 | 0.00 | 10 | 1012.1 |
| 20260503003642 | 69 | 360 | 3.0 | 6.0 | 0.00 | 0.00 | 0.00 | 10 | 1012.0 |
| 20260503003057 | 70 | 94 | 3.0 | 5.0 | 0.00 | 0.00 | 0.00 | 10 | 1012.0 |
| 20260503002540 | 69 | 60 | 1.0 | 9.0 | 0.00 | 0.00 | 0.00 | 9 | 1012.0 |
| 20260503002040 | 70 | 50 | 4.0 | 9.0 | 0.00 | 0.00 | 0.00 | 10 | 1012.2 |
| 20260503001540 | 70 | 66 | 2.0 | 9.0 | 0.00 | 0.00 | 0.00 | 9 | 1012.2 |
| 20260503001039 | 70 | 88 | 5.0 | 12.0 | 0.00 | 0.00 | 0.00 | 9 | 1012.3 |
| 20260503000539 | 70 | 63 | 4.0 | 12.0 | 0.00 | 0.00 | 0.00 | 9 | 1012.2 |
| 20260503000057 | 71 | 100 | 2.0 | 6.0 | 0.00 | 0.00 | 0.00 | 9 | 1012.3 |
| 20260502235538 | 70 | 111 | 2.0 | 9.0 | 0.00 | 0.00 | 0.00 | 9 | 1012.3 |
| 20260502235037 | 71 | 88 | 3.0 | 9.0 | 0.00 | 0.00 | 0.00 | 9 | 1012.4 |
| 20260502234539 | 71 | 90 | 5.0 | 8.0 | 0.00 | 0.00 | 0.00 | 9 | 1012.4 |
| 20260502234037 | 71 | 55 | 2.0 | 9.0 | 0.00 | 0.00 | 0.00 | 9 | 1012.5 |
| 20260502233536 | 71 | 81 | 2.0 | 8.0 | 0.00 | 0.00 | 0.00 | 9 | 1012.5 |
| 20260502233038 | 71 | 80 | 2.0 | 10.0 | 0.00 | 0.00 | 0.00 | 9 | 1012.6 |
| 20260502232534 | 71 | 30 | 5.0 | 10.0 | 0.00 | 0.00 | 0.00 | 9 | 1012.5 |
| 20260502232033 | 71 | 73 | 3.0 | 11.0 | 0.00 | 0.00 | 0.00 | 9 | 1012.6 |
| 20260502231535 | 71 | 67 | 1.0 | 7.0 | 0.00 | 0.00 | 0.00 | 9 | 1012.7 |
| 20260502231033 | 71 | 118 | 2.0 | 11.0 | 0.00 | 0.00 | 0.00 | 10 | 1012.7 |
| 20260502230533 | 71 | 343 | 5.0 | 11.0 | 0.00 | 0.00 | 0.00 | 9 | 1012.8 |
| 20260502230032 | 71 | 45 | 2.0 | 9.0 | 0.00 | 0.00 | 0.00 | 9 | 1012.8 |
| 20260502225532 | 71 | 50 | 6.0 | 10.0 | 0.00 | 0.00 | 0.00 | 9 | 1012.9 |
| 20260502225032 | 71 | 44 | 6.0 | 10.0 | 0.00 | 0.00 | 0.00 | 9 | 1012.9 |
| 20260502224531 | 71 | 75 | 5.0 | 10.0 | 0.00 | 0.00 | 0.00 | 9 | 1012.8 |
| 20260502224030 | 71 | 65 | 3.0 | 10.0 | 0.00 | 0.00 | 0.00 | 9 | 1013.0 |
| 20260502223531 | 71 | 118 | 3.0 | 12.0 | 0.00 | 0.00 | 0.00 | 9 | 1013.0 |
| 20260502223030 | 71 | 65 | 5.0 | 12.0 | 0.00 | 0.00 | 0.00 | 9 | 1013.1 |
| 20260502222529 | 72 | 46 | 5.0 | 10.0 | 0.00 | 0.00 | 0.00 | 9 | 1013.1 |
| 20260502222028 | 72 | 96 | 6.0 | 10.0 | 0.00 | 0.00 | 0.00 | 9 | 1013.3 |
| 20260502221528 | 71 | 96 | 5.0 | 11.0 | 0.00 | 0.00 | 0.00 | 10 | 1013.3 |
| 20260502221030 | 71 | 70 | 6.0 | 11.0 | 0.00 | 0.00 | 0.00 | 9 | 1013.3 |
| 20260502220527 | 71 | 51 | 4.0 | 10.0 | 0.00 | 0.00 | 0.00 | 10 | 1013.4 |
| 20260502220030 | 71 | 83 | 6.0 | 10.0 | 0.00 | 0.00 | 0.00 | 10 | 1013.4 |
| 20260502215525 | 71 | 52 | 3.0 | 10.0 | 0.00 | 0.00 | 0.00 | 10 | 1013.6 |
| 20260502215024 | 71 | 65 | 5.0 | 10.0 | 0.00 | 0.00 | 0.00 | 10 | 1013.6 |
| 20260502214523 | 72 | 58 | 4.0 | 8.0 | 0.00 | 0.00 | 0.00 | 10 | 1013.7 |
| 20260502214022 | 71 | 123 | 2.0 | 10.0 | 0.00 | 0.00 | 0.00 | 10 | 1013.9 |
| 20260502213521 | 71 | 83 | 4.0 | 10.0 | 0.00 | 0.00 | 0.00 | 11 | 1014.0 |
| 20260502213025 | 71 | 94 | 5.0 | 10.0 | 0.00 | 0.00 | 0.00 | 12 | 1014.1 |
| 20260502212520 | 70 | 53 | 4.0 | 10.0 | 0.00 | 0.00 | 0.00 | 12 | 1014.2 |
| 20260502212020 | 70 | 360 | 2.0 | 13.0 | 0.00 | 0.00 | 0.00 | 11 | 1014.3 |
| 20260502211518 | 71 | 105 | 5.0 | 13.0 | 0.00 | 0.00 | 0.00 | 11 | 1014.3 |
| 20260502211017 | 71 | 59 | 7.0 | 14.0 | 0.00 | 0.00 | 0.00 | 13 | 1014.4 |
| 20260502210516 | 71 | 111 | 6.0 | 12.0 | 0.00 | 0.00 | 0.00 | 12 | 1014.5 |
| 20260502210016 | 72 | 89 | 2.0 | 10.0 | 0.00 | 0.00 | 0.00 | 14 | 1014.6 |
| 20260502205516 | 70 | 122 | 4.0 | 12.0 | 0.00 | 0.00 | 0.00 | 14 | 1014.8 |
| 20260502205015 | 70 | 112 | 5.0 | 12.0 | 0.00 | 0.00 | 0.00 | 13 | 1014.9 |
| 20260502204522 | 70 | 119 | 5.0 | 9.0 | 0.00 | 0.00 | 0.00 | 14 | 1014.9 |
| 20260502204014 | 71 | 101 | 1.0 | 8.0 | 0.00 | 0.00 | 0.00 | 13 | 1015.0 |
| 20260502203513 | 70 | 51 | 1.0 | 11.0 | 0.00 | 0.00 | 0.00 | 13 | 1015.1 |
| 20260502203016 | 70 | 77 | 5.0 | 11.0 | 0.00 | 0.00 | 0.00 | 13 | 1015.1 |
| 20260502202514 | 69 | 66 | 1.0 | 10.0 | 0.00 | 0.00 | 0.00 | 14 | 1015.1 |
| 20260502202012 | 70 | 40 | 5.0 | 10.0 | 0.00 | 0.00 | 0.00 | 14 | 1015.2 |
| 20260502201514 | 70 | 9 | 5.0 | 9.0 | 0.00 | 0.00 | 0.00 | 14 | 1015.2 |
| 20260502201014 | 70 | 10 | 2.0 | 9.0 | 0.00 | 0.00 | 0.00 | 14 | 1015.4 |
| 20260502200612 | 69 | 30 | 4.0 | 12.0 | 0.00 | 0.00 | 0.00 | 14 | 1015.4 |
| 20260502200010 | 69 | 88 | 6.0 | 12.0 | 0.00 | 0.00 | 0.00 | 14 | 1015.4 |
| 20260502195514 | 68 | 43 | 2.0 | 6.0 | 0.00 | 0.00 | 0.00 | 15 | 1015.5 |
| 20260502195009 | 70 | 67 | 2.0 | 8.0 | 0.00 | 0.00 | 0.00 | 15 | 1015.6 |
| 20260502194507 | 69 | 147 | 2.0 | 12.0 | 0.00 | 0.00 | 0.00 | 14 | 1015.8 |
| 20260502194009 | 68 | 92 | 5.0 | 13.0 | 0.00 | 0.00 | 0.00 | 15 | 1015.8 |
| 20260502193507 | 69 | 92 | 5.0 | 13.0 | 0.00 | 0.00 | 0.00 | 16 | 1015.8 |
| 20260502193006 | 68 | 360 | 3.0 | 12.0 | 0.00 | 0.00 | 0.00 | 15 | 1015.9 |
| 20260502192506 | 68 | 76 | 5.0 | 12.0 | 0.00 | 0.00 | 0.00 | 15 | 1016.0 |
| 20260502192008 | 70 | 26 | 3.0 | 8.0 | 0.00 | 0.00 | 0.00 | 17 | 1016.1 |
| 20260502191511 | 68 | 28 | 3.0 | 5.0 | 0.00 | 0.00 | 0.00 | 15 | 1016.2 |
| 20260502191004 | 68 | 12 | 1.0 | 9.0 | 0.00 | 0.00 | 0.00 | 15 | 1016.3 |
| 20260502190503 | 69 | 360 | 2.0 | 9.0 | 0.00 | 0.00 | 0.00 | 16 | 1016.4 |
| 20260502190005 | 67 | 360 | 2.0 | 6.0 | 0.00 | 0.00 | 0.00 | 15 | 1016.5 |
| 20260502185502 | 67 | 60 | 3.0 | 8.0 | 0.00 | 0.00 | 0.00 | 15 | 1016.7 |
| 20260502185100 | 68 | 128 | 4.0 | 8.0 | 0.00 | 0.00 | 0.00 | 15 | 1016.6 |
| 20260502184600 | 69 | 265 | 2.0 | 4.0 | 0.00 | 0.00 | 0.00 | 16 | 1016.7 |
| 20260502184059 | 68 | 106 | 1.0 | 4.0 | 0.00 | 0.00 | 0.00 | 16 | 1016.8 |
| 20260502183559 | 67 | 360 | 1.0 | 10.0 | 0.00 | 0.00 | 0.00 | 17 | 1016.8 |
| 20260502183057 | 66 | 63 | 2.0 | 10.0 | 0.00 | 0.00 | 0.00 | 16 | 1017.0 |
| 20260502182556 | 67 | 57 | 1.0 | 4.0 | 0.00 | 0.00 | 0.00 | 16 | 1017.0 |
| 20260502182056 | 68 | 242 | 1.0 | 4.0 | 0.00 | 0.00 | 0.00 | 20 | 1017.1 |
| 20260502181555 | 68 | 211 | 1.0 | 5.0 | 0.00 | 0.00 | 0.00 | 16 | 1017.2 |
| 20260502181054 | 66 | 22 | 2.0 | 11.0 | 0.00 | 0.00 | 0.00 | 18 | 1017.2 |
| 20260502180553 | 66 | 9 | 5.0 | 11.0 | 0.00 | 0.00 | 0.00 | 17 | 1017.4 |
| 20260502164043 | 63 | 63 | 2.0 | 5.0 | 0.00 | 0.00 | 0.00 | 18 | 1018.4 |
| 20260502163541 | 64 | 248 | 1.0 | 5.0 | 0.00 | 0.00 | 0.00 | 19 | 1018.5 |
| 20260502163047 | 64 | 254 | 2.0 | 5.0 | 0.00 | 0.00 | 0.00 | 20 | 1018.5 |
| 20260502162540 | 62 | 46 | 1.0 | 5.0 | 0.00 | 0.00 | 0.00 | 21 | 1018.6 |
| 20260502162039 | 64 | 200 | 2.0 | 5.0 | 0.00 | 0.00 | 0.00 | 20 | 1018.5 |
| 20260502161538 | 63 | 243 | 2.0 | 5.0 | 0.00 | 0.00 | 0.00 | 21 | 1018.6 |
| 20260502161037 | 63 | 252 | 0.0 | 4.0 | 0.00 | 0.00 | 0.00 | 22 | 1018.7 |
| 20260502160536 | 62 | 279 | 1.0 | 4.0 | 0.00 | 0.00 | 0.00 | 25 | 1018.8 |
| 20260502152028 | 58 | 130 | 1.0 | 7.0 | 0.00 | 0.00 | 0.00 | 31 | 1019.2 |
| 20260502151536 | 57 | 254 | 0.0 | 4.0 | 0.00 | 0.00 | 0.00 | 32 | 1019.2 |
| 20260502151026 | 56 | 76 | 1.0 | 4.0 | 0.00 | 0.00 | 0.00 | 33 | 1019.3 |
| 20260502150525 | 55 | 229 | 1.0 | 4.0 | 0.00 | 0.00 | 0.00 | 34 | 1019.3 |
| 20260502130503 | 37 | 360 | 1.0 | 3.0 | 0.00 | 0.00 | 0.00 | 63 | 1020.0 |
| 20260502123500 | 33 | 360 | 0.0 | 0.0 | 0.00 | 0.00 | 0.00 | 71 | 1019.8 |
| 20260502123103 | 32 | 360 | 0.0 | 0.0 | 0.00 | 0.00 | 0.00 | 71 | 1019.8 |
| 20260502122601 | 32 | 163 | 0.0 | 0.0 | 0.00 | 0.00 | 0.00 | 73 | 1019.7 |
| 20260502122059 | 31 | 147 | 0.0 | 0.0 | 0.00 | 0.00 | 0.00 | 75 | 1019.8 |
| 20260502121559 | 31 | 360 | 0.0 | 0.0 | 0.00 | 0.00 | 0.00 | 74 | 1019.7 |
| 20260502121059 | 30 | 360 | 0.0 | 1.0 | 0.00 | 0.00 | 0.00 | 75 | 1019.7 |
| 20260502120559 | 31 | 360 | 0.0 | 1.0 | 0.00 | 0.00 | 0.00 | 74 | 1019.7 |
| 20260502115557 | 31 | 360 | 0.0 | 1.0 | 0.00 | 0.00 | 0.00 | 75 | 1019.7 |
| 20260502115101 | 31 | 360 | 0.0 | 0.0 | 0.00 | 0.00 | 0.00 | 75 | 1019.7 |
| 20260502114556 | 31 | 360 | 0.0 | 0.0 | 0.00 | 0.00 | 0.00 | 74 | 1019.6 |
| 20260502114056 | 31 | 360 | 0.0 | 0.0 | 0.00 | 0.00 | 0.00 | 74 | 1019.7 |
| 20260502113553 | 32 | 360 | 0.0 | 0.0 | 0.00 | 0.00 | 0.00 | 74 | 1019.7 |
| 20260502113053 | 32 | 360 | 0.0 | 0.0 | 0.00 | 0.00 | 0.00 | 74 | 1019.7 |
| 20260502112551 | 33 | 360 | 0.0 | 0.0 | 0.00 | 0.00 | 0.00 | 73 | 1019.7 |
| 20260502112050 | 33 | 311 | 0.0 | 0.0 | 0.00 | 0.00 | 0.00 | 72 | 1019.7 |
| 20260502111554 | 33 | 331 | 0.0 | 0.0 | 0.00 | 0.00 | 0.00 | 72 | 1019.7 |
| 20260502111049 | 33 | 310 | 0.0 | 0.0 | 0.00 | 0.00 | 0.00 | 71 | 1019.7 |
| 20260502110548 | 34 | 333 | 0.0 | 0.0 | 0.00 | 0.00 | 0.00 | 71 | 1019.7 |
| 20260502110050 | 35 | 334 | 0.0 | 1.0 | 0.00 | 0.00 | 0.00 | 70 | 1019.7 |
| 20260502105548 | 34 | 326 | 0.0 | 1.0 | 0.00 | 0.00 | 0.00 | 72 | 1019.7 |
| 20260502105047 | 34 | 333 | 0.0 | 0.0 | 0.00 | 0.00 | 0.00 | 71 | 1019.7 |
| 20260502104546 | 34 | 336 | 0.0 | 0.0 | 0.00 | 0.00 | 0.00 | 70 | 1019.7 |
| 20260502104046 | 34 | 298 | 0.0 | 0.0 | 0.00 | 0.00 | 0.00 | 69 | 1019.7 |
| 20260502103546 | 35 | 310 | 0.0 | 0.0 | 0.00 | 0.00 | 0.00 | 69 | 1019.7 |
| 20260502103045 | 35 | 310 | 0.0 | 1.0 | 0.00 | 0.00 | 0.00 | 68 | 1019.7 |
| 20260502102545 | 35 | 307 | 0.0 | 1.0 | 0.00 | 0.00 | 0.00 | 69 | 1019.8 |
| 20260502102044 | 34 | 304 | 0.0 | 0.0 | 0.00 | 0.00 | 0.00 | 69 | 1019.5 |
| 20260502101547 | 34 | 307 | 0.0 | 0.0 | 0.00 | 0.00 | 0.00 | 68 | 1019.5 |
| 20260502101041 | 34 | 298 | 0.0 | 0.0 | 0.00 | 0.00 | 0.00 | 68 | 1019.3 |
| 20260502100542 | 35 | 302 | 0.0 | 1.0 | 0.00 | 0.00 | 0.00 | 68 | 1019.3 |
| 20260502091532 | 37 | 360 | 0.0 | 0.0 | 0.00 | 0.00 | 0.00 | 65 | 1019.1 |
| 20260502091031 | 38 | 360 | 0.0 | 0.0 | 0.00 | 0.00 | 0.00 | 65 | 1019.1 |
| 20260502090530 | 38 | 360 | 0.0 | 1.0 | 0.00 | 0.00 | 0.00 | 64 | 1019.1 |
| 20260502071514 | 41 | 360 | 0.0 | 0.0 | 0.00 | 0.00 | 0.00 | 52 | 1019.3 |
| 20260502071014 | 41 | 360 | 0.0 | 0.0 | 0.00 | 0.00 | 0.00 | 52 | 1019.3 |
| 20260502070514 | 41 | 360 | 0.0 | 0.0 | 0.00 | 0.00 | 0.00 | 52 | 1019.3 |
| 20260502070016 | 41 | 360 | 0.0 | 0.0 | 0.00 | 0.00 | 0.00 | 51 | 1019.3 |
| 20260502065513 | 41 | 360 | 0.0 | 0.0 | 0.00 | 0.00 | 0.00 | 51 | 1019.3 |
| 20260502065016 | 41 | 360 | 0.0 | 0.0 | 0.00 | 0.00 | 0.00 | 51 | 1019.4 |
| 20260502064518 | 41 | 360 | 0.0 | 0.0 | 0.00 | 0.00 | 0.00 | 51 | 1019.4 |
| 20260502064016 | 42 | 360 | 0.0 | 1.0 | 0.00 | 0.00 | 0.00 | 52 | 1019.4 |
| 20260502063512 | 41 | 360 | 0.0 | 1.0 | 0.00 | 0.00 | 0.00 | 52 | 1019.4 |
| 20260502063014 | 41 | 360 | 0.0 | 0.0 | 0.00 | 0.00 | 0.00 | 52 | 1019.4 |
| 20260502062516 | 41 | 360 | 0.0 | 0.0 | 0.00 | 0.00 | 0.00 | 51 | 1019.5 |
| 20260502062009 | 42 | 360 | 0.0 | 0.0 | 0.00 | 0.00 | 0.00 | 50 | 1019.5 |
| 20260502061509 | 42 | 360 | 0.0 | 0.0 | 0.00 | 0.00 | 0.00 | 50 | 1019.5 |
| 20260502061007 | 42 | 360 | 0.0 | 0.0 | 0.00 | 0.00 | 0.00 | 48 | 1019.5 |
| 20260502060507 | 43 | 360 | 0.0 | 0.0 | 0.00 | 0.00 | 0.00 | 48 | 1019.5 |
| 20260502060006 | 43 | 360 | 0.0 | 0.0 | 0.00 | 0.00 | 0.00 | 47 | 1019.5 |
| 20260502055506 | 43 | 360 | 0.0 | 0.0 | 0.00 | 0.00 | 0.00 | 46 | 1019.5 |
| 20260502055006 | 44 | 360 | 0.0 | 0.0 | 0.00 | 0.00 | 0.00 | 45 | 1019.5 |
| 20260502054506 | 44 | 360 | 0.0 | 0.0 | 0.00 | 0.00 | 0.00 | 46 | 1019.4 |
| 20260502054005 | 43 | 360 | 0.0 | 0.0 | 0.00 | 0.00 | 0.00 | 44 | 1019.4 |
| 20260502053505 | 44 | 360 | 0.0 | 0.0 | 0.00 | 0.00 | 0.00 | 43 | 1019.3 |
| 20260502053005 | 44 | 360 | 0.0 | 0.0 | 0.00 | 0.00 | 0.00 | 43 | 1019.3 |
| 20260502052507 | 44 | 360 | 0.0 | 0.0 | 0.00 | 0.00 | 0.00 | 42 | 1019.3 |
| 20260502052005 | 44 | 360 | 0.0 | 0.0 | 0.00 | 0.00 | 0.00 | 42 | 1019.3 |
| 20260502051505 | 44 | 360 | 0.0 | 0.0 | 0.00 | 0.00 | 0.00 | 42 | 1019.3 |
| 20260502051006 | 44 | 360 | 0.0 | 0.0 | 0.00 | 0.00 | 0.00 | 42 | 1019.3 |
| 20260502050504 | 45 | 360 | 0.0 | 1.0 | 0.00 | 0.00 | 0.00 | 41 | 1019.2 |
| 20260502050005 | 45 | 360 | 0.0 | 1.0 | 0.00 | 0.00 | 0.00 | 42 | 1019.2 |
| 20260502045504 | 45 | 360 | 0.0 | 1.0 | 0.00 | 0.00 | 0.00 | 42 | 1019.2 |
| 20260502045009 | 45 | 360 | 0.0 | 0.0 | 0.00 | 0.00 | 0.00 | 42 | 1019.2 |
| 20260502044504 | 45 | 360 | 0.0 | 0.0 | 0.00 | 0.00 | 0.00 | 41 | 1019.2 |
| 20260502044003 | 46 | 360 | 0.0 | 0.0 | 0.00 | 0.00 | 0.00 | 40 | 1019.2 |
| 20260502043505 | 46 | 360 | 0.0 | 0.0 | 0.00 | 0.00 | 0.00 | 38 | 1019.2 |
| 20260502043002 | 47 | 360 | 0.0 | 1.0 | 0.00 | 0.00 | 0.00 | 38 | 1019.2 |
| 20260502042503 | 47 | 360 | 0.0 | 1.0 | 0.00 | 0.00 | 0.00 | 38 | 1019.1 |
| 20260502042003 | 48 | 360 | 0.0 | 1.0 | 0.00 | 0.00 | 0.00 | 36 | 1019.1 |
| 20260502041505 | 47 | 360 | 0.0 | 1.0 | 0.00 | 0.00 | 0.00 | 36 | 1019.1 |
| 20260502041002 | 48 | 360 | 0.0 | 1.0 | 0.00 | 0.00 | 0.00 | 35 | 1019.1 |
| 20260502040502 | 49 | 360 | 0.0 | 1.0 | 0.00 | 0.00 | 0.00 | 34 | 1019.0 |
| 20260502040005 | 48 | 360 | 0.0 | 1.0 | 0.00 | 0.00 | 0.00 | 35 | 1018.9 |
| 20260502035502 | 48 | 360 | 0.0 | 1.0 | 0.00 | 0.00 | 0.00 | 35 | 1018.9 |
| 20260502035002 | 48 | 360 | 0.0 | 0.0 | 0.00 | 0.00 | 0.00 | 35 | 1018.9 |
| 20260502034502 | 49 | 360 | 0.0 | 0.0 | 0.00 | 0.00 | 0.00 | 34 | 1018.8 |
| 20260502034001 | 49 | 360 | 0.0 | 0.0 | 0.00 | 0.00 | 0.00 | 33 | 1018.7 |
| 20260502033501 | 50 | 360 | 0.0 | 1.0 | 0.00 | 0.00 | 0.00 | 32 | 1018.7 |
| 20260502033002 | 50 | 360 | 0.0 | 1.0 | 0.00 | 0.00 | 0.00 | 31 | 1018.6 |
| 20260502032504 | 51 | 360 | 0.0 | 1.0 | 0.00 | 0.00 | 0.00 | 31 | 1018.4 |
| 20260502032001 | 52 | 360 | 0.0 | 2.0 | 0.00 | 0.00 | 0.00 | 29 | 1018.4 |
| 20260502031502 | 52 | 360 | 0.0 | 2.0 | 0.00 | 0.00 | 0.00 | 29 | 1018.3 |
| 20260502031002 | 52 | 360 | 0.0 | 2.0 | 0.00 | 0.00 | 0.00 | 29 | 1018.3 |
| 20260502030602 | 52 | 360 | 0.0 | 2.0 | 0.00 | 0.00 | 0.00 | 29 | 1018.3 |
| 20260502030101 | 52 | 360 | 0.0 | 1.0 | 0.00 | 0.00 | 0.00 | 31 | 1018.2 |
| 20260502025601 | 51 | 360 | 0.0 | 1.0 | 0.00 | 0.00 | 0.00 | 32 | 1018.2 |
| 20260502025103 | 51 | 360 | 0.0 | 0.0 | 0.00 | 0.00 | 0.00 | 32 | 1018.0 |
| 20260502024607 | 52 | 360 | 0.0 | 0.0 | 0.00 | 0.00 | 0.00 | 31 | 1017.9 |
| 20260502024100 | 52 | 360 | 0.0 | 0.0 | 0.00 | 0.00 | 0.00 | 30 | 1017.8 |
| 20260502023600 | 53 | 360 | 0.0 | 0.0 | 0.00 | 0.00 | 0.00 | 29 | 1017.7 |
| 20260502023502 | 53 | 360 | 0.0 | 0.0 | 0.00 | 0.00 | 0.00 | 29 | 1017.7 |
| 20260502023059 | 54 | 360 | 0.0 | 1.0 | 0.00 | 0.00 | 0.00 | 29 | 1017.6 |
| 20260502022559 | 55 | 360 | 0.0 | 2.0 | 0.00 | 0.00 | 0.00 | 28 | 1017.5 |
| 20260502022058 | 55 | 360 | 0.0 | 3.0 | 0.00 | 0.00 | 0.00 | 28 | 1017.5 |
| 20260502021559 | 56 | 360 | 1.0 | 3.0 | 0.00 | 0.00 | 0.00 | 26 | 1017.4 |
| 20260502021058 | 56 | 360 | 1.0 | 3.0 | 0.00 | 0.00 | 0.00 | 26 | 1017.2 |
| 20260502020601 | 55 | 360 | 0.0 | 3.0 | 0.00 | 0.00 | 0.00 | 26 | 1017.2 |
| 20260502020058 | 56 | 360 | 1.0 | 3.0 | 0.00 | 0.00 | 0.00 | 25 | 1017.2 |
| 20260502015600 | 57 | 360 | 1.0 | 3.0 | 0.00 | 0.00 | 0.00 | 25 | 1017.2 |
| 20260502015058 | 57 | 360 | 0.0 | 2.0 | 0.00 | 0.00 | 0.00 | 25 | 1017.1 |
| 20260502014557 | 57 | 360 | 1.0 | 4.0 | 0.00 | 0.00 | 0.00 | 24 | 1017.0 |